[[{"header":{"parameterUnit":"m.s-1","parameterCategory":1,"la1":30.2991,"la2":30.254,"lo1":-89.0895,"lo2":-89.0444,"dy":0.0017,"dx":0.0017,"nx":28,"ny":28,"refTime":"2023-09-23T09:00:00:Z","depth":0,"parameterNumber":2,"parameterNumberName":"U-component_of_WINDS"},"data":[0,0,0,0,0,0,0,0,0,0,0,0,0,0,0,0,0,0,0,0,0,0,0,0,0,0,0,0,0,0,0,0,0,0,0,0,0,0,0,0,0,0,0,0,0,0,0,0,0,0,0,0,0,0,0,0,0,0,1.3899,1.3899,0,1.3899,1.3899,1.3899,1.3864,1.3863,1.3862,1.3861,1.3859,1.386,1.3861,0,0,0,0,0,0,0,0,0,0,0,0,0,1.3865,1.3866,1.3899,1.3899,1.3899,1.3899,1.3899,1.3899,1.3864,1.3863,1.3862,1.3861,1.3859,1.386,1.3861,0,0,0,0,0,0,0,0,0,0,0,0,0,1.3874,1.3866,1.3899,1.3881,1.388,1.3899,1.3899,1.3899,1.3864,1.3863,1.3861,1.386,1.3859,1.386,1.3861,1.3897,0,0,1.3865,1.3865,0,0,0,0,0,0,0,0,1.3873,1.3875,1.3884,1.3883,1.3881,1.388,1.3886,1.3898,1.3865,1.387,1.3861,1.3859,1.3867,1.3868,1.3871,1.3896,1.3896,1.3865,1.3866,1.3866,1.3867,0,0,0,0,0,0,0,1.3873,1.3875,1.3899,1.3884,1.3882,1.3872,1.3872,1.3888,1.3876,1.387,1.3867,1.3868,1.3866,1.387,1.387,1.3896,1.3865,1.3866,1.3867,1.3867,1.3947,1.3948,0,0,0,0,0,0,1.3875,1.3874,1.3899,1.3899,1.3874,1.3874,1.3874,1.3882,1.3876,1.3874,1.3869,1.3866,1.3868,1.3869,1.387,1.3908,1.3866,1.3867,1.3868,1.3946,1.3947,1.3949,0,0,0,0,0,0,1.3874,1.3877,1.3899,1.3886,1.3888,1.3876,1.3885,1.3882,1.3886,1.3876,1.3873,1.3875,1.3867,1.3868,1.3889,1.3908,1.3868,1.3869,1.3944,1.3946,1.3948,1.3986,0,0,0,0,0,0,1.3873,1.3877,1.3892,1.3887,1.3889,1.3919,1.3887,1.3883,1.3888,1.3885,1.388,1.3878,1.3866,1.3888,1.3891,1.3909,1.387,1.3942,1.3945,1.3948,1.3983,1.3989,1.3995,0,0,0,0,0,1.3872,1.3903,1.3892,1.3896,1.3906,1.392,1.3922,1.3907,1.389,1.3903,1.3896,1.3879,1.3906,1.389,1.3893,1.3912,1.3941,1.3944,1.3947,1.3981,1.3988,1.3995,0,0,0,0,0,0,1.391,1.3902,1.389,1.392,1.3921,1.3915,1.3931,1.3916,1.3922,1.3918,1.39,1.3899,1.3922,1.392,1.3902,1.3944,1.392,1.3924,1.3945,1.3952,1.3957,1.3956,1.3871,0,0,0,0,0,1.3922,1.3935,1.3927,1.3954,1.3955,1.3943,1.3949,1.3937,1.3938,1.3938,1.3932,1.3932,1.394,1.3946,1.3954,1.3984,1.398,1.3998,1.4003,1.4008,1.4011,1.4023,1.4029,1.3959,1.3959,1.3959,0,0,1.3946,1.3943,1.3953,1.3961,1.3961,1.3973,1.3944,1.3958,1.3966,1.394,1.3958,1.3955,1.3953,1.3978,1.3989,1.3976,1.403,1.4012,1.4016,1.4016,1.4027,1.4033,1.4039,1.3961,1.3961,1.3961,0,0,1.3996,1.3997,1.4018,1.4017,1.4017,1.4009,1.4014,1.4009,1.4005,1.4024,1.4003,1.4012,1.4028,1.4027,1.4028,1.4076,1.4059,1.4079,1.4108,1.412,1.4125,1.413,1.4144,1.4149,1.4082,1.4082,1.4082,0,1.4026,1.4045,1.403,1.4045,1.4048,1.4025,1.4045,1.4045,1.4047,1.4049,1.4036,1.4053,1.4051,1.4073,1.4084,1.4088,1.4091,1.4078,1.4126,1.413,1.4135,1.4148,1.4153,1.4085,1.4084,1.4084,1.4084,0,1.408,1.4093,1.411,1.4111,1.4116,1.4134,1.4121,1.4128,1.4116,1.4109,1.4126,1.4123,1.4127,1.4133,1.4122,1.4153,1.4145,1.4129,1.4104,1.4144,1.4155,1.4161,1.4088,1.4087,1.4086,1.4086,0,0,1.4153,1.4145,1.4151,1.4151,1.4148,1.4157,1.4173,1.4177,1.4182,1.4184,1.4195,1.4208,1.4192,1.4194,1.4183,1.4194,1.4228,1.4176,1.4176,1.4183,1.4258,1.4268,1.4274,1.4218,1.4219,1.4219,1.4257,0,1.4198,1.4225,1.4211,1.4239,1.4249,1.4226,1.4239,1.4238,1.4231,1.4238,1.423,1.4238,1.4219,1.422,1.423,1.4222,1.4242,1.4219,1.4225,1.4225,1.4223,1.4281,1.4292,1.4328,1.4262,1.4263,1.4264,0,1.4255,1.4259,1.4287,1.4279,1.4283,1.4295,1.4297,1.4305,1.4302,1.4296,1.4297,1.4283,1.4296,1.4273,1.4289,1.4274,1.4276,1.4272,1.4273,1.427,1.4245,1.4277,1.4339,1.4344,1.4271,1.4271,1.427,0,1.4301,1.4313,1.4331,1.4331,1.4324,1.4333,1.433,1.4326,1.4329,1.4331,1.4332,1.4335,1.4336,1.4339,1.4324,1.431,1.4341,1.4318,1.4335,1.4335,1.434,1.434,1.44,1.4346,1.4346,1.4346,1.4346,0,1.4352,1.4369,1.4351,1.4362,1.4379,1.4364,1.4382,1.4377,1.4373,1.4381,1.4363,1.437,1.4352,1.4358,1.4347,1.436,1.4362,1.4356,1.4352,1.4356,1.4356,1.4355,1.4351,1.4348,1.4347,1.4347,1.4347,0,1.4406,1.4395,1.4411,1.4403,1.4401,1.4415,1.4407,1.4415,1.4407,1.4417,1.4419,1.4406,1.4411,1.4398,1.4401,1.4394,1.4412,1.4406,1.4412,1.4409,1.4425,1.4423,1.4485,1.4491,1.4436,1.4437,1.4437,0,1.4437,1.445,1.4442,1.4446,1.4444,1.4452,1.4454,1.4439,1.4442,1.4439,1.4447,1.4451,1.4452,1.4461,1.4452,1.4453,1.4445,1.4467,1.4445,1.4448,1.4442,1.444,1.444,1.4471,1.4471,1.4472,1.4472,0,1.4493,1.4487,1.4491,1.4493,1.4497,1.4498,1.4497,1.4501,1.4485,1.4489,1.4494,1.4495,1.4498,1.4501,1.4501,1.4496,1.4481,1.448,1.4483,1.4485,1.4488,1.4483,1.4421,1.4478,1.4477,1.4477,1.4476,1.4476,1.4535,1.4544,1.4539,1.4544,1.4542,1.4541,1.4548,1.4541,1.4545,1.4545,1.4536,1.4543,1.4538,1.4535,1.4533,1.4536,1.4526,1.4532,1.4533,1.4534,1.4535,1.4489,1.4537,1.4537,1.4536,1.4536,1.4536,0,1.4587,1.4583,1.4588,1.4587,1.459,1.4576,1.4575,1.4578,1.4584,1.4581,1.4583,1.4587,1.4589,1.458,1.458,1.4585,1.4578,1.4585,1.4583,1.4582,1.4546,1.4541,1.4591,1.4591,1.4591,1.4591,1.4591,1.4591,1.4614,1.4628,1.462,1.4632,1.4627,1.4633,1.4633,1.4632,1.4629,1.4635,1.4637,1.463,1.4624,1.4624,1.4625,1.4621,1.4621,1.4631,1.4625,1.4591,1.4585,1.458,1.4575,1.4632,1.4632,1.4661,1.4661,1.4661]},{"header":{"parameterUnit":"m.s-1","parameterCategory":1,"la1":30.2991,"la2":30.254,"lo1":-89.0895,"lo2":-89.0444,"dy":0.0017,"dx":0.0017,"nx":28,"ny":28,"refTime":"2023-09-23T09:00:00:Z","depth":0,"parameterNumber":3,"parameterNumberName":"V-component_of_WINDS"},"data":[0,0,0,0,0,0,0,0,0,0,0,0,0,0,0,0,0,0,0,0,0,0,0,0,0,0,0,0,0,0,0,0,0,0,0,0,0,0,0,0,0,0,0,0,0,0,0,0,0,0,0,0,0,0,0,0,0,0,0.6151,0.6151,0,0.6134,0.6134,0.6134,0.6078,0.6077,0.6076,0.6074,0.6057,0.6058,0.6058,0,0,0,0,0,0,0,0,0,0,0,0,0,0.6134,0.6135,0.6151,0.6151,0.6151,0.6134,0.6134,0.6134,0.6078,0.6077,0.6075,0.6074,0.6057,0.6058,0.6059,0,0,0,0,0,0,0,0,0,0,0,0,0,0.6132,0.6135,0.6151,0.6121,0.6118,0.6134,0.6134,0.6134,0.6079,0.6077,0.6075,0.6073,0.6057,0.6058,0.6059,0.6102,0,0,0.6062,0.6062,0,0,0,0,0,0,0,0,0.6132,0.6132,0.6126,0.6123,0.612,0.6106,0.6121,0.6123,0.6079,0.6094,0.6074,0.6072,0.6075,0.6074,0.6075,0.6102,0.6101,0.6062,0.6063,0.6063,0.6063,0,0,0,0,0,0,0,0.6132,0.6133,0.6144,0.6126,0.6122,0.6108,0.6105,0.6122,0.6095,0.6092,0.6088,0.6087,0.6073,0.6074,0.6074,0.6101,0.6062,0.6063,0.6063,0.6064,0.6159,0.6161,0,0,0,0,0,0,0.6137,0.6133,0.6145,0.6144,0.6121,0.611,0.6107,0.6113,0.6095,0.609,0.6089,0.6084,0.6074,0.6073,0.6074,0.6122,0.6063,0.6064,0.6065,0.6157,0.616,0.6162,0,0,0,0,0,0,0.6137,0.6138,0.6146,0.6137,0.6137,0.6112,0.6119,0.6113,0.6115,0.6092,0.6087,0.6095,0.6072,0.6072,0.6095,0.6121,0.6064,0.6065,0.6155,0.6158,0.6161,0.622,0,0,0,0,0,0,0.6136,0.6139,0.6156,0.6138,0.6138,0.6168,0.612,0.6114,0.6117,0.6111,0.6096,0.6092,0.6071,0.6094,0.6096,0.6121,0.6066,0.6153,0.6156,0.616,0.6216,0.6225,0.6232,0,0,0,0,0,0.6136,0.6174,0.6157,0.6158,0.6159,0.617,0.6169,0.6144,0.6119,0.6135,0.612,0.6093,0.6118,0.6097,0.6099,0.6124,0.6151,0.6155,0.6159,0.6212,0.6223,0.6232,0,0,0,0,0,0,0.6195,0.6171,0.6152,0.6185,0.618,0.616,0.618,0.6156,0.6158,0.6153,0.6121,0.6118,0.6145,0.6137,0.6114,0.6164,0.6129,0.6134,0.6169,0.6179,0.6187,0.6188,0.6067,0,0,0,0,0,0.6212,0.6223,0.6201,0.6233,0.6231,0.6206,0.621,0.619,0.6184,0.6181,0.6168,0.6162,0.6168,0.6173,0.6178,0.6214,0.6209,0.6233,0.6241,0.6248,0.6253,0.6269,0.6279,0.6176,0.6176,0.6176,0,0,0.6247,0.6235,0.6244,0.6244,0.6238,0.6249,0.6205,0.622,0.6227,0.6183,0.6204,0.6194,0.6185,0.6214,0.6227,0.6209,0.628,0.6254,0.6259,0.626,0.6274,0.6284,0.6293,0.6179,0.6178,0.6178,0,0,0.6317,0.631,0.6334,0.6328,0.6318,0.6301,0.6307,0.6291,0.6282,0.6302,0.6269,0.6277,0.6289,0.6284,0.6283,0.6348,0.6322,0.635,0.6393,0.641,0.6418,0.6425,0.6447,0.6455,0.6355,0.6355,0.6355,0,0.6362,0.6378,0.6349,0.6366,0.6366,0.6326,0.6349,0.6345,0.6338,0.6339,0.6318,0.6331,0.6322,0.6349,0.6364,0.6365,0.637,0.6352,0.6419,0.6426,0.6432,0.6452,0.6461,0.6358,0.6358,0.6358,0.6357,0,0.6433,0.6444,0.6465,0.6458,0.6461,0.6481,0.6454,0.646,0.644,0.6425,0.6444,0.6432,0.6433,0.6438,0.6419,0.6461,0.645,0.6425,0.6389,0.6446,0.6464,0.6472,0.6363,0.6362,0.6361,0.636,0,0,0.654,0.6516,0.6524,0.6519,0.6505,0.6513,0.653,0.653,0.6535,0.6531,0.6544,0.6554,0.653,0.6529,0.6508,0.6523,0.6573,0.6496,0.6495,0.6509,0.6617,0.6635,0.6645,0.6556,0.6557,0.6558,0.6617,0,0.6605,0.6633,0.6607,0.664,0.665,0.6611,0.6626,0.6618,0.6604,0.6609,0.6593,0.66,0.6569,0.6568,0.6581,0.6564,0.6594,0.656,0.6567,0.6567,0.6569,0.6654,0.6674,0.673,0.6624,0.6625,0.6626,0,0.6685,0.6683,0.6717,0.6698,0.6701,0.6715,0.6712,0.6718,0.6708,0.6696,0.6694,0.6669,0.6683,0.6648,0.6667,0.6644,0.6645,0.6638,0.6639,0.6638,0.66,0.6655,0.6747,0.6756,0.6638,0.6637,0.6636,0,0.6758,0.6764,0.6785,0.6782,0.6762,0.6772,0.6764,0.6752,0.6753,0.675,0.675,0.6749,0.6748,0.6747,0.6722,0.6699,0.6743,0.6707,0.6733,0.6734,0.6744,0.6744,0.6837,0.6746,0.6746,0.6746,0.6746,0,0.6832,0.6854,0.6817,0.683,0.6852,0.6822,0.6845,0.6833,0.6822,0.6831,0.6797,0.6806,0.6772,0.6777,0.6758,0.6775,0.6775,0.6766,0.676,0.6768,0.6769,0.6768,0.6763,0.6748,0.6748,0.6747,0.6747,0,0.6918,0.6894,0.6913,0.6892,0.6886,0.6904,0.6885,0.6895,0.6878,0.689,0.6891,0.6864,0.6868,0.6842,0.6842,0.6828,0.6855,0.6843,0.6858,0.6854,0.6881,0.6879,0.6977,0.6987,0.6891,0.6892,0.6893,0,0.6967,0.6982,0.6962,0.6965,0.6958,0.6964,0.6965,0.6935,0.6936,0.6925,0.6936,0.6937,0.6936,0.6944,0.6924,0.6923,0.691,0.6944,0.691,0.6917,0.6909,0.6908,0.6908,0.6951,0.6953,0.6954,0.6954,0,0.7055,0.7042,0.7044,0.7041,0.7042,0.7039,0.7033,0.7038,0.7005,0.7008,0.7011,0.7011,0.7009,0.701,0.7005,0.6995,0.6969,0.6965,0.6971,0.6979,0.6987,0.6982,0.6877,0.6963,0.6962,0.6962,0.6961,0.6961,0.7123,0.7134,0.7121,0.7123,0.7116,0.7111,0.7119,0.7102,0.7104,0.71,0.7082,0.7089,0.7076,0.7066,0.7059,0.7062,0.7046,0.7055,0.7057,0.7059,0.7063,0.6987,0.7061,0.7061,0.7061,0.7061,0.706,0,0.7208,0.7197,0.72,0.7192,0.7194,0.7169,0.7161,0.7164,0.717,0.716,0.7159,0.7162,0.7162,0.7142,0.7139,0.7146,0.7134,0.7146,0.7145,0.7143,0.7079,0.7074,0.7156,0.7156,0.7156,0.7156,0.7156,0.7156,0.7253,0.727,0.7255,0.7268,0.7256,0.7262,0.7259,0.7254,0.7246,0.725,0.725,0.7237,0.7222,0.7218,0.7217,0.721,0.721,0.7227,0.7217,0.7157,0.7148,0.7139,0.7134,0.7227,0.7228,0.728,0.728,0.7281]}]]